Location: Wells
(51.2093°N, 2.6446°W)
Time: 05:56:15
(UTC+01:00)

STARS - Pass Details

Date: 16 March 2026
Orbit: 575 x 588 km, 98.2° (Epoch: 17 April)

Event Time Altitude Azimuth Distance (km) Brightness Sun altitude
Rises 03:55:45 0° 0° (N) 2,803 ? -23.0°
Reaches altitude 10° 03:58:44 10° 337° (NNW) 1,898 ? -22.6°
Enters shadow 03:59:32 12° 326° (NNW) 1,739 ? -22.5°
